Regional Weather Roundup
Issued by NWS

Home | Current Version | Previous Version | Text Only | Print | Product List | Glossary Off
Versions: 1 2 3 4 5 6 7 8 9 10 11 12 13 14 15 16 17 18 19 20 21 22 23 24 25 26 27 28 29 30 31 32 33 34 35 36 37 38 39 40 41 42 43 44 45 46 47 48 49 50

431
ASUS43 KMPX 051501
RWRMN
WEATHER ROUNDUP FOR MINNESOTA
NATIONAL WEATHER SERVICE TWIN CITIES/CHANHASSEN MN
1000 AM CDT THU MAY 05 2016


NOTE: "FAIR" INDICATES FEW OR NO CLOUDS BELOW 12,000 FEET WITH NO
SIGNIFICANT WEATHER AND/OR OBSTRUCTIONS TO VISIBILITY. N/A MEANS
CURRENT SKY AND/OR WEATHER CONDITIONS ARE NOT AVAILABLE.

MNZ060>063-068>070-051600-
   Twin Cities Metro

CITY           SKY/WX    TMP DP  RH WIND       PRES   REMARKS
TWIN CITIES    MOSUNNY   57  30  35 SW8       30.07S
ST PAUL        MOSUNNY   57  33  40 S7        30.07F
CRYSTAL        SUNNY     59  29  31 SW9       30.06S
BLAINE         MOSUNNY   57  30  35 SW7       30.06S
EDEN PRAIRIE   SUNNY     59  30  33 S8        30.07R
SOUTH ST PAUL  MOSUNNY   56  31  38 S8        30.07F
LAKE ELMO      FAIR      54  36  50 S8        30.08S
$$
MNZ001>005-007-008-013>017-022>024-027-028-051600-
   Northwest Minnesota

CITY           SKY/WX    TMP DP  RH WIND       PRES   REMARKS
BEMIDJI        SUNNY     66  32  27 S13       29.92F
HALLOCK        SUNNY     79  43  27 W17       29.78F
ROSEAU         SUNNY     70  45  40 SW14      29.80F
WARROAD        SUNNY     66  46  48 SW15      29.81S
THIEF RVR FALL SUNNY     70  39  32 SW15      29.87F
CROOKSTON      SUNNY     70  43  37 S15       29.87F
FOSSTON        SUNNY     68  36  30 S18G25    29.90F
DETROIT LAKES  SUNNY     64  36  34 S12       29.96F
MOORHEAD       SUNNY     66  37  34 S13       29.93S
PARK RAPIDS    SUNNY     66  31  27 S14       29.96F
MAHNOMEN       FAIR      65  37  34 S20       29.92F
$$
MNZ006-009>011-018-025>026-051600-
   North Central Minnesota

CITY           SKY/WX    TMP DP  RH WIND       PRES   REMARKS
BAUDETTE       SUNNY     68  35  29 SW18G24   29.83F
FLAG ISLAND    SUNNY     57  39  51 S12       29.78F
INTL FALLS     SUNNY     63  35  35 SW15G22   29.86F
WASKISH        SUNNY     68  34  28 S9G20     29.87F
BIG FORK       SUNNY     63  32  31 SW15G22   29.91F
LONGVILLE      SUNNY     63  28  27 S10       29.96F
GRAND RAPIDS   MOSUNNY   59  30  33 SW12G17   29.97F
CRANE LAKE     MOSUNNY   52  37  58 S5        29.92S
ORR            MOSUNNY   61  27  27 SW9G17    29.89F
COOK           MOSUNNY   57  30  35 SW13G20   29.93F
WALKER         FAIR      63  30  29 S12G17    29.94F
$$
MNZ012-019>021-037-051600-
   Northeast Minnesota

CITY           SKY/WX    TMP DP  RH WIND       PRES   REMARKS
DULUTH         PTSUNNY   49  36  61 SW12      29.98F
ELY            SUNNY     57  28  33 SW13G18   29.92F
HIBBING        LGT RAIN  50  36  58 CALM      29.95F
EVELETH        LGT RAIN  52  36  54 S8        29.96F
DULUTH HARBOR  MOSUNNY   52  39  62 SW16      29.99F
TWO HARBORS    SUNNY     59  41  51 S8        29.95F
SILVER BAY     MOSUNNY   55  36  47 S8        29.95F
GRAND MARAIS     N/A     38  35  89 SW5       29.99F
G MARAIS ARPRT SUNNY     50  30  46 CALM      29.95F
$$
MNZ029>031-032-039>041-046>048-054>057-064-051600-
   West Central Minnesota

CITY           SKY/WX    TMP DP  RH WIND       PRES   REMARKS
FERGUS FALLS   SUNNY     68  37  32 S14       29.94F
WHEATON        SUNNY     72  43  35 S8        29.98S
MORRIS         SUNNY     66  37  34 S12       29.99S
ALEXANDRIA     SUNNY     65  31  28 S14       30.02S
ELBOW LAKE     FAIR      67  37  32 S15       29.99S
WADENA         SUNNY     64  36  34 S14       29.97F
GLENWOOD       SUNNY     64  30  27 S14       30.03R
APPLETON       SUNNY     66  34  30 S9        30.00F
BENSON         SUNNY     66  30  26 S10       30.01F
ORTONVILLE     SUNNY     66  39  37 SE9       29.99S
MADISON        SUNNY     68  36  30 S7        30.01S
WILLMAR        FAIR      63  34  34 S3        30.05F
$$
MNZ033>034-036-042>043-049>051-058-059-051600-
   Central Minnesota

CITY           SKY/WX    TMP DP  RH WIND       PRES   REMARKS
ST CLOUD       SUNNY     59  29  31 S10       30.03F
SAUK CENTRE    FAIR      63  33  32 S9        30.03S
PAYNESVILLE    SUNNY     63  29  28 S8        30.04F
AITKIN         PTSUNNY   61  25  25 S9        29.98F
PINE RIVER     MOSUNNY   63  36  36 S8        30.01F
BRAINERD       PTSUNNY   58  33  39 S8        30.00F
STAPLES        SUNNY     63  30  29 S12       29.99F
LONG PRAIRIE   FAIR      59  34  38 S7        30.03S
LITTLE FALLS   MOSUNNY   61  28  29 S8        30.02F
LITCHFIELD     SUNNY     64  30  27 CALM      30.05F
BUFFALO        SUNNY     57  28  32 S6        30.08F
MAPLE LAKE     SUNNY     59  33  37 S7        30.07F
HUTCHINSON     SUNNY     61  34  36 S7        30.07R
$$
MNZ037-044-045-052-053-051600-
   East Central Minnesota

CITY           SKY/WX    TMP DP  RH WIND       PRES   REMARKS
PRINCETON      SUNNY     63  30  29 S9        30.04F
MORA           SUNNY     55  32  41 SW8       30.04F
CAMBRIDGE      MOSUNNY   61  37  41 SW10G17   30.02F
RUSH CITY      MOSUNNY   55  32  40 SW8       30.04F
MOOSE LAKE     CLOUDY    54  32  43 S9        29.98F
HINCKLEY       CLOUDY    55  34  44 S12       30.03F
CLOQUET        CLOUDY    52  32  46 S7        29.99F
MCGREGOR       CLOUDY    54  32  43 SW6       29.99F
$$
MNZ071>073-080-081-089-090-097-098-051600-
   Southwest Minnesota

CITY           SKY/WX    TMP DP  RH WIND       PRES   REMARKS
MONTEVIDEO     SUNNY     66  39  37 SW6       30.04F
GRANITE FALLS  SUNNY     66  39  36 SE5       30.06S
CANBY          SUNNY     72  40  32 W5        30.03S
MARSHALL       SUNNY     69  35  28 SW8       30.04S
REDWOOD FALLS  SUNNY     63  34  33 S8        30.05F
OLIVIA         MOSUNNY   61  34  36 SW7       30.04F
PIPESTONE      SUNNY     64  34  32 SW8       30.05S
WINDOM         SUNNY     63  34  34 CALM      30.07F
WORTHINGTON    SUNNY     62  35  36 SW8       30.08R
JACKSON        SUNNY     61  30  31 SW8       30.08F
TRACY          SUNNY     66  35  31 SW10      30.06S
SLAYTON        SUNNY     63  32  31 SW9       30.07R
$$
MNZ065>067-074>077-082>085-091>093-051600-
   South Central Minnesota

CITY           SKY/WX    TMP DP  RH WIND       PRES   REMARKS
MANKATO        SUNNY     59  27  29 SW10G16   30.08R
NEW ULM        SUNNY     57  34  41 SW8       30.06S
ST JAMES       SUNNY     55  30  38 S8        30.08S
FAIRMONT       SUNNY     57  32  38 S9        30.08F
GLENCOE        SUNNY     60  35  37 S6        30.07R
OWATONNA       SUNNY     57  30  35 S8        30.08S
WASECA         SUNNY     55  30  38 SE8       30.09F
ALBERT LEA     SUNNY     55  30  38 SE7       30.09S
$$
MNZ078>079-086>088-094>096-051600-
   Southeast Minnesota

CITY           SKY/WX    TMP DP  RH WIND       PRES   REMARKS
ROCHESTER      CLOUDY    50  34  54 S3        30.11R
RED WING       CLOUDY    50  39  66 CALM      30.07F
STANTON        PTSUNNY   58  32  37 S6        30.07S
DODGE CENTER   CLOUDY    54  34  47 S6        30.10R
WINONA         SUNNY     54  34  47 CALM      30.09F
AUSTIN         MOSUNNY   54  34  47 S5        30.09S
PRESTON        CLOUDY    53  35  50 CALM      30.10S
$$
ABBREVIATIONS USED IN REMARKS
   TC - TEMPERATURES IN CELSIUS
  WCI - WIND CHILL INDEX
   HX - HEAT INDEX
  VSB - VISIBILITY
$$




USA.gov is the U.S. government's official web portal to all federal, state and local government web resources and services.